Wind_Speed
100 101 100 99 98 96 95 94 93 93 93 92 91 91 90 88 87 87 86 85 83 81 80 79 78 79 79 78 76 74 72 71 69 70 72 71 69 69 68 67 67 68 68 67 64 63 63 63 61 60 58 57 54 51 51 51 51 56 58 56 55 56 56 54 52 49 47 46 44 45 45 44 43 43 44 43 40 39 39 41 42 42 42 41 40 39 39
99 100 101 100 99 98 97 96 94 94 93 93 92 92 91 90 89 89 87 86 84 82 81 81 80 81 80 79 78 75 74 73 71 71 73 72 71 71 71 70 69 69 70 69 67 65 66 66 64 62 60 58 55 53 53 53 53 57 60 59 57 57 56 54 52 50 50 48 45 44 43 44 44 45 45 45 42 41 42 42 42 43 43 42 42 41 40
98 100 101 101 100 99 98 97 96 95 94 93 93 92 92 92 91 90 88 87 85 84 83 83 83 83 82 81 80 77 76 76 74 74 76 75 74 74 73 72 71 71 72 71 69 68 69 69 66 63 62 60 58 56 55 55 55 58 61 60 59 58 56 55 53 51 51 50 48 45 43 42 44 45 46 46 44 43 43 44 44 45 44 44 43 43 42
95 98 100 101 101 100 100 99 97 96 95 94 93 93 92 92 91 90 89 89 88 87 86 85 84 84 83 82 81 79 78 79 77 77 78 78 76 76 75 74 73 73 73 72 71 70 71 71 68 65 63 61 60 59 58 57 57 59 62 61 60 59 57 54 53 53 53 52 50 49 46 44 43 45 46 47 46 45 45 44 45 46 45 45 45 44 44
91 95 99 101 101 101 101 100 99 98 96 95 94 94 93 92 90 90 91 91 90 89 88 86 85 85 84 83 82 80 78 78 77 78 79 78 76 76 76 74 74 75 75 74 72 71 71 72 71 68 65 63 62 60 60 59 59 60 62 62 62 60 57 54 54 54 54 53 53 53 52 48 44 44 46 48 48 48 47 46 47 47 46 47 47 45 45
88 92 96 99 101 102 102 101 100 99 98 96 95 94 94 93 92 92 92 92 92 91 90 88 88 87 86 85 84 83 81 81 80 81 80 78 77 77 76 76 76 77 76 75 73 72 72 72 72 71 69 66 63 61 61 61 60 61 63 64 62 61 58 56 56 55 54 54 55 56 56 52 48 47 48 49 50 51 50 48 47 47 47 47 48 46 45
85 89 93 97 99 101 102 102 101 100 99 98 96 96 95 94 94 94 93 92 92 92 91 90 89 89 88 87 88 87 85 85 84 84 83 81 79 79 80 79 79 78 78 76 75 74 73 73 73 73 72 69 66 64 62 61 60 62 65 65 63 61 60 58 57 55 55 57 58 58 57 54 52 50 51 52 53 54 52 50 49 49 48 48 48 47 47
82 87 90 94 97 100 101 102 102 101 100 99 97 97 97 96 95 95 94 92 92 92 92 91 90 90 89 89 89 89 87 86 86 86 85 83 82 81 82 82 80 79 79 77 75 74 73 73 73 73 74 73 70 68 66 63 62 62 63 65 64 63 62 60 57 56 58 61 61 60 58 56 54 53 54 56 57 55 53 51 51 51 49 49 48 48 48
78 83 87 91 94 97 100 101 102 102 101 100 99 99 98 97 96 95 94 93 93 92 92 92 92 92 90 89 89 89 87 87 87 87 86 84 83 83 83 83 82 80 79 78 76 75 74 73 73 74 75 74 73 72 69 66 64 63 63 63 64 64 64 63 61 60 62 63 63 62 61 58 56 56 58 59 58 56 55 54 54 53 52 51 51 50 51
72 79 84 88 92 95 98 100 101 102 102 101 100 100 99 98 97 96 95 94 94 94 93 93 94 93 92 90 89 88 88 87 88 88 86 86 86 86 85 84 83 81 80 78 76 75 75 74 74 74 75 75 75 74 72 69 67 66 64 63 64 65 66 66 65 64 65 65 64 63 62 59 59 60 61 59 57 57 57 57 56 55 54 54 53 54 54
68 73 79 84 89 92 95 98 100 101 101 101 101 102 101 99 98 97 96 96 96 96 95 94 94 94 92 91 90 89 89 89 88 88 86 86 87 87 85 83 82 81 81 79 77 76 76 75 75 75 75 75 74 74 73 72 71 69 66 65 65 65 66 68 68 67 68 67 67 66 63 61 62 63 62 60 58 58 58 58 58 57 56 55 56 57 57
67 69 74 80 85 89 93 96 98 100 101 101 102 102 102 101 99 98 97 98 98 97 96 95 95 94 93 93 92 91 91 90 90 89 87 87 88 88 86 84 82 81 80 79 79 78 78 78 78 77 76 76 75 73 73 73 72 71 70 69 68 66 66 67 68 70 70 70 70 68 64 63 64 65 65 63 60 58 57 59 59 57 57 57 58 58 58
70 69 71 75 80 85 89 93 96 98 100 101 101 102 103 102 100 99 99 99 99 99 98 97 96 95 94 94 94 93 92 91 91 90 89 89 90 90 89 86 84 81 80 80 80 80 80 81 81 79 77 76 75 74 73 74 74 74 74 73 72 70 69 67 67 68 69 71 71 68 65 65 66 67 66 64 61 59 59 60 59 58 59 60 60 59 59
75 74 72 73 76 81 85 89 93 96 98 100 101 102 102 102 101 101 101 100 100 100 100 99 98 96 96 96 94 93 92 92 91 90 90 90 91 91 91 88 84 82 80 81 81 82 83 84 84 81 78 76 76 76 75 75 76 76 76 77 76 75 73 71 69 68 68 69 68 67 66 66 67 68 67 65 62 61 61 60 60 60 60 62 63 62 61
80 79 77 76 75 77 81 85 90 93 96 98 99 100 101 102 101 101 101 101 101 102 101 100 98 98 97 96 95 94 93 93 92 92 91 91 91 92 92 89 85 84 83 83 83 84 86 87 85 82 80 78 78 78 77 76 77 77 78 79 80 79 77 75 73 71 70 68 67 66 65 64 66 68 68 66 64 63 62 62 62 62 62 63 64 64 63
84 83 82 81 79 78 79 81 85 90 93 96 98 99 100 101 101 101 101 102 102 102 101 100 99 99 99 97 96 95 95 94 93 93 93 93 92 92 92 91 90 89 88 86 86 87 88 88 86 84 83 82 81 80 79 78 78 78 80 82 82 81 80 78 76 74 72 70 68 66 63 63 65 67 66 64 63 62 63 64 65 64 64 63 64 64 64
88 88 86 85 84 83 81 81 82 85 89 93 95 97 99 100 100 101 101 101 102 103 102 101 101 101 100 99 98 97 96 95 94 94 94 94 93 93 94 94 95 94 92 89 88 88 89 89 88 87 85 84 83 82 82 81 80 80 83 84 83 82 81 79 78 75 73 71 69 67 64 64 65 66 65 64 62 61 62 64 66 66 66 65 65 65 65
91 91 91 89 88 87 86 85 83 84 86 89 92 95 97 99 99 100 100 100 101 102 102 101 101 102 102 101 99 98 98 97 97 96 97 96 95 95 96 97 98 97 95 91 89 89 89 89 90 89 86 85 85 84 83 83 83 83 84 84 84 82 81 79 77 76 74 72 70 68 65 65 66 65 64 64 63 62 63 64 65 66 67 66 66 66 67
91 93 94 94 92 91 90 89 88 86 86 86 88 91 94 96 98 98 99 99 100 101 101 101 101 102 101 100 100 100 100 100 99 99 99 99 98 99 99 100 100 99 97 95 92 90 88 88 89 90 88 87 86 85 84 83 83 83 84 84 83 82 80 78 76 76 75 73 72 69 65 65 65 65 64 63 63 63 63 65 66 67 67 67 67 68 69
90 93 95 97 97 96 94 93 92 91 89 88 87 88 90 93 95 96 97 98 99 101 103 102 101 101 101 101 102 102 102 101 101 100 100 100 100 101 101 101 100 99 98 96 93 90 88 88 89 90 89 88 87 86 84 83 82 83 84 85 84 83 81 78 77 76 76 74 72 70 67 66 66 64 63 63 63 63 64 65 66 66 67 67 69 70 71
90 92 95 97 99 99 98 97 96 95 94 92 90 89 89 90 91 93 95 97 99 101 103 102 100 100 100 101 103 103 102 101 101 101 100 100 101 101 102 102 100 98 97 96 93 91 90 88 88 89 88 88 89 87 86 85 84 84 85 86 85 84 82 80 79 77 76 73 71 69 67 66 64 63 62 62 63 65 66 65 65 66 67 69 70 71 71
90 92 95 97 100 101 102 101 100 99 98 96 95 93 92 91 90 91 92 94 96 99 101 101 99 99 100 101 102 103 102 101 100 100 99 100 100 100 101 102 100 97 96 94 93 93 92 90 88 88 87 88 89 89 88 87 85 84 86 87 86 85 82 80 79 77 74 71 69 67 66 64 63 62 63 63 64 65 66 66 66 68 69 70 71 72 72
93 93 95 97 100 102 103 104 104 103 102 100 99 97 96 94 93 92 91 92 93 96 99 99 99 99 100 101 102 103 102 102 101 100 100 100 100 100 101 103 101 98 96 95 94 94 94 92 90 88 87 88 89 89 89 88 86 85 86 87 86 84 82 79 77 75 72 70 67 66 65 64 63 62 63 63 64 65 66 67 68 69 70 71 72 73 73
96 96 96 98 100 102 104 106 106 107 106 104 103 101 100 98 97 95 94 93 93 94 96 96 96 97 98 99 100 101 102 102 101 100 100 100 100 100 101 103 102 100 97 96 95 94 93 92 91 88 87 87 88 88 88 87 86 86 85 84 84 82 79 77 75 73 72 70 67 66 65 64 63 62 62 63 64 65 66 68 70 71 72 72 73 74 74
98 98 99 100 101 103 105 107 108 109 109 108 107 105 103 102 101 99 98 96 95 95 95 94 94 95 95 96 97 98 100 102 102 101 100 99 98 99 100 103 102 100 97 96 95 94 92 91 90 88 86 86 87 87 87 87 85 84 82 82 81 79 76 75 74 73 71 70 68 66 64 63 63 63 63 63 64 66 68 70 72 73 73 74 75 76 76
99 100 101 102 103 104 106 108 109 110 111 111 110 109 107 105 104 103 101 100 98 98 97 96 95 94 94 94 95 96 98 99 99 99 98 97 96 96 99 101 101 99 97 97 95 93 92 90 89 87 85 85 86 86 86 85 84 82 80 79 79 77 75 74 73 71 70 69 68 66 65 64 63 63 63 65 67 68 69 71 73 74 74 75 76 77 78
99 101 102 103 104 106 107 109 110 111 112 113 113 112 110 109 107 106 104 103 102 101 100 100 98 96 95 95 95 95 94 95 96 96 95 95 94 94 95 98 99 98 96 96 94 92 90 88 86 84 83 83 84 84 84 84 83 80 78 77 76 76 74 73 71 70 69 68 67 66 66 66 65 65 66 69 70 71 72 73 75 76 77 78 79 79 80
98 99 101 103 105 106 108 109 110 111 112 114 114 114 113 112 110 109 107 106 105 104 103 103 102 99 98 98 97 96 95 94 94 94 94 93 93 92 92 95 97 97 95 94 93 91 88 85 83 82 82 82 82 82 82 82 81 78 76 75 75 74 73 72 71 70 69 68 67 68 69 69 68 69 71 73 73 74 75 77 79 80 80 80 81 82 83
95 97 99 102 104 106 107 109 110 111 112 114 115 115 115 114 113 112 110 108 107 106 106 105 105 103 102 101 101 100 98 96 95 94 94 94 93 92 92 93 94 95 94 92 90 88 86 83 82 81 81 82 82 81 80 79 79 76 74 74 74 74 73 73 73 71 70 69 70 72 72 71 72 73 74 75 75 77 79 81 82 83 83 83 83 84 84
92 94 96 99 101 104 106 107 108 110 111 114 115 116 116 115 115 114 112 111 110 109 108 108 107 107 106 105 104 103 102 100 98 97 97 96 96 95 94 94 94 95 95 92 89 86 84 83 81 80 80 81 82 80 79 78 77 74 73 74 75 76 76 76 76 75 73 72 74 75 75 75 75 76 76 77 79 81 83 85 86 86 85 85 85 85 85
89 91 93 95 97 100 102 104 106 108 110 112 114 115 115 115 115 115 114 114 113 112 111 110 110 110 110 108 107 106 105 103 102 101 100 100 99 99 98 97 96 96 96 94 91 88 85 83 82 82 82 83 82 81 80 79 76 73 73 75 78 79 81 80 80 79 78 77 78 79 79 78 79 79 80 81 82 84 86 88 88 87 87 87 87 86 86
86 88 90 92 94 96 98 100 103 105 108 110 112 112 113 114 115 115 115 115 115 114 113 112 112 112 112 112 110 109 107 106 105 104 104 103 103 102 101 100 99 98 98 97 95 92 88 87 86 85 85 87 87 85 82 80 76 74 75 78 82 84 85 85 84 83 82 82 83 83 82 81 81 82 83 84 85 87 90 91 89 88 88 88 89 88 88
83 85 87 88 90 92 94 96 98 101 104 107 108 109 110 112 113 114 115 115 115 115 114 114 113 113 114 114 114 112 110 108 107 107 107 106 106 105 104 103 102 102 100 99 98 96 94 93 90 88 88 91 93 90 85 80 78 78 79 82 86 88 89 89 89 87 86 87 87 86 85 84 84 85 86 87 88 90 92 92 90 89 89 91 91 90 90
80 82 84 85 87 89 90 92 94 97 100 102 104 105 107 109 110 112 113 114 114 115 115 114 114 114 115 116 116 115 113 112 111 110 110 109 108 108 107 107 105 104 103 101 100 100 98 97 95 93 93 95 97 94 87 82 81 83 85 87 89 91 92 93 92 91 90 91 90 87 86 86 87 88 88 88 89 92 93 92 90 90 92 93 93 92 91
77 79 81 82 83 85 87 89 91 93 95 96 98 100 103 104 106 108 110 111 112 113 113 114 114 114 115 117 118 117 116 115 114 113 113 112 111 110 110 109 107 106 105 104 104 102 100 99 99 98 97 97 98 96 89 85 86 88 90 91 92 94 95 95 94 94 94 93 91 88 87 88 89 90 90 90 91 93 93 92 91 93 94 95 95 94 94
74 75 77 78 80 81 83 85 87 88 90 91 93 95 97 99 101 103 105 107 109 110 111 112 113 113 114 116 118 119 119 118 117 116 115 115 114 113 112 111 110 109 108 107 105 103 102 102 102 101 100 99 98 95 91 91 92 92 93 94 95 96 97 97 95 95 96 96 92 90 90 91 91 91 92 92 92 92 93 93 94 95 96 96 96 96 96
69 71 72 74 76 77 80 82 83 84 85 86 88 90 91 93 95 97 99 102 104 105 107 109 110 112 113 115 117 120 120 119 118 118 117 116 116 116 115 114 112 111 110 109 107 105 105 105 104 103 101 99 98 96 95 96 96 96 96 98 98 98 99 99 97 97 97 96 94 93 94 94 93 93 94 94 93 93 93 95 96 96 97 98 97 97 97
65 66 67 70 72 75 76 77 77 78 80 82 83 84 86 87 88 90 93 95 98 100 102 104 106 109 111 113 115 118 119 118 118 117 117 117 117 117 116 116 114 113 112 110 108 108 109 108 107 105 103 101 100 99 99 99 99 100 101 101 102 101 101 100 100 99 98 96 96 96 96 96 95 95 96 95 94 94 95 96 96 97 98 98 98 98 99
61 62 63 66 69 71 71 71 71 73 75 76 78 79 80 82 83 84 87 89 91 94 97 99 102 105 107 109 111 114 115 115 116 116 116 116 116 116 116 116 115 114 113 111 110 111 111 111 109 108 106 103 102 102 103 104 104 104 104 104 105 104 102 101 102 101 99 97 97 97 97 97 98 98 97 96 95 95 96 97 97 98 99 99 99 100 101
58 59 61 63 65 66 66 65 66 67 69 70 71 73 75 77 78 80 82 84 86 89 92 94 97 99 101 102 105 108 109 110 111 112 113 113 113 113 114 114 113 113 112 111 111 112 112 112 111 109 107 106 105 106 107 108 107 107 106 107 107 106 105 104 103 102 100 99 99 99 98 99 99 99 98 97 97 97 97 98 99 99 99 100 101 101 101
56 58 59 60 60 60 60 59 60 60 61 62 64 66 69 71 73 75 78 80 82 84 85 87 88 91 92 94 96 100 102 103 104 107 109 109 109 108 109 109 109 109 108 109 110 110 110 110 109 108 107 107 108 108 108 108 107 107 108 108 107 106 106 106 104 102 101 101 101 101 100 101 101 99 98 98 98 98 98 99 99 99 100 101 101 101 101
53 54 54 53 53 53 53 52 52 53 54 56 58 60 63 66 69 71 73 75 75 76 77 78 80 82 84 86 88 92 95 96 97 99 101 102 102 101 101 102 103 102 103 105 107 107 106 106 106 106 106 107 106 106 105 105 105 105 106 106 105 105 105 105 103 102 101 102 102 102 102 102 101 99 98 98 98 98 98 98 99 100 101 101 100 100 99
48 48 47 47 47 47 47 47 47 48 49 51 53 56 59 62 63 64 64 64 65 67 70 72 75 77 79 81 82 84 85 86 87 87 89 90 91 91 91 92 93 94 96 98 100 100 100 101 102 103 103 103 102 101 101 101 101 101 101 101 101 101 101 101 100 100 100 100 100 100 100 99 98 97 97 97 97 97 97 98 98 99 99 98 98 97 96
42 43 43 43 43 43 43 43 44 44 46 48 51 54 55 55 53 52 53 55 58 62 66 69 71 73 73 73 73 73 74 74 74 75 75 75 76 77 78 79 81 83 86 88 89 91 92 93 94 95 96 96 96 95 95 94 94 94 95 95 95 95 95 96 97 97 97 97 97 96 95 94 94 94 94 94 94 94 95 95 95 95 94 93 93 92 91
39 39 40 40 40 40 40 40 40 42 45 47 48 47 46 44 44 46 49 52 57 60 62 63 64 64 62 61 61 63 63 64 64 64 64 64 65 65 67 69 71 74 75 77 79 81 82 83 84 85 86 86 86 85 84 84 84 85 85 85 86 87 88 89 90 90 91 91 90 90 90 89 89 89 89 89 89 90 90 90 89 88 87 87 87 86 85
37 37 38 39 39 38 38 39 41 41 42 41 39 38 38 40 43 47 51 53 54 55 54 52 52 52 51 51 52 53 54 54 55 55 55 56 56 57 59 61 63 64 66 68 70 72 73 74 74 75 74 75 75 74 73 72 72 74 76 77 77 78 79 80 80 81 82 83 83 83 83 83 82 82 82 83 83 84 84 83 83 82 82 81 80 79 78
34 35 36 36 37 37 37 38 37 35 33 33 33 35 39 43 46 49 49 48 47 46 45 44 43 43 43 44 45 45 45 46 46 47 47 48 49 50 52 53 55 56 58 60 62 63 64 65 65 64 63 63 63 63 62 59 59 63 67 69 67 66 68 70 71 72 73 73 73 73 74 74 75 75 75 76 76 76 77 77 77 76 76 75 74 73 72
33 33 34 36 36 36 34 32 30 29 29 31 35 39 42 45 45 44 42 40 39 39 38 37 36 36 36 37 37 38 39 39 40 40 41 42 43 44 45 46 48 50 51 53 54 54 55 55 54 53 52 52 52 53 52 51 51 55 59 58 55 54 56 58 60 61 61 61 61 63 64 65 66 67 67 68 69 69 70 71 70 70 70 71 70 69 68
33 34 34 35 34 32 30 29 29 31 34 37 40 41 41 40 37 35 34 34 33 32 31 31 31 31 31 31 31 32 32 33 34 35 36 37 37 38 39 41 43 44 45 45 46 47 46 45 44 44 43 42 42 42 43 44 45 47 48 46 44 44 45 47 48 49 49 50 51 53 54 55 56 58 59 61 62 63 64 65 65 66 67 67 66 64 63
36 36 35 34 32 32 32 33 35 37 39 40 39 37 34 31 30 30 29 29 28 27 26 26 26 26 26 25 26 26 27 28 30 31 32 33 34 35 36 37 38 39 39 39 39 39 38 36 35 34 33 32 32 33 34 35 35 35 35 35 36 36 37 37 38 39 40 41 42 44 45 47 49 51 53 55 57 58 59 60 61 62 62 62 61 60 59
36 35 35 35 36 38 39 39 39 39 37 34 31 28 27 26 26 26 25 24 23 23 22 22 22 21 21 22 22 22 24 25 26 27 29 29 30 31 32 32 33 33 33 32 31 31 31 30 29 28 28 28 28 27 27 26 26 27 27 28 29 29 29 30 31 32 33 34 36 38 39 42 44 46 49 51 52 54 55 56 56 57 57 56 56 56 55
36 37 38 38 39 39 38 37 35 32 29 27 25 24 24 24 23 22 21 21 20 19 18 18 18 18 19 20 20 21 22 22 23 24 25 25 25 25 26 26 25 26 26 26 26 27 27 27 26 25 25 25 24 23 23 23 23 23 23 23 24 24 25 25 26 27 29 31 32 34 36 38 40 42 45 47 49 50 51 52 52 52 52 52 51 50 49
Wind_Direction
216 217 218 219 220 221 221 222 223 224 225 226 227 228 229 230 231 233 234 235 235 236 237 238 239 241 242 243 245 246 246 247 247 249 250 252 253 254 255 256 258 260 262 263 265 267 268 269 270 272 274 276 278 281 283 285 287 288 290 293 295 296 298 300 301 303 303 303 306 308 310 311 312 312 312 313 315 315 311 309 310 312 314 314 313 310 308
216 217 218 219 220 221 222 222 223 224 225 226 227 228 229 230 231 233 234 235 236 237 238 239 240 241 242 244 245 246 247 248 248 249 251 252 253 254 255 256 257 259 261 263 265 267 268 269 270 272 274 276 278 280 282 284 285 286 289 292 294 294 296 298 299 301 301 302 305 306 306 308 309 309 309 311 313 313 310 309 309 310 312 313 312 309 308
217 217 218 219 220 221 222 223 224 225 226 226 227 228 229 230 231 233 234 236 236 237 238 239 240 241 242 243 244 245 246 247 247 248 250 251 252 253 254 256 257 259 261 263 265 266 267 269 270 272 274 276 278 280 281 283 285 286 287 290 292 293 294 296 297 299 298 301 304 305 304 305 305 305 307 307 308 309 307 306 306 308 310 310 309 308 308
218 218 219 220 221 222 223 224 224 225 226 227 228 228 229 230 231 233 234 235 236 236 237 238 240 241 242 244 245 245 246 248 249 249 250 251 252 253 255 257 258 260 261 263 264 266 268 270 271 273 274 276 278 280 282 283 284 284 286 289 290 291 293 294 295 296 297 300 303 302 302 303 303 302 303 304 305 306 304 301 302 305 308 306 307 309 309
220 220 220 220 221 222 223 224 225 226 226 227 228 229 230 230 231 232 234 235 236 236 237 238 239 241 242 243 244 245 245 247 249 249 250 252 253 255 256 257 259 260 261 262 264 266 268 270 272 274 275 276 278 280 282 282 282 283 285 287 288 290 291 292 293 294 297 299 301 301 302 304 303 301 299 300 302 302 301 301 302 304 304 302 304 308 306
221 221 221 221 222 222 223 224 225 226 227 228 229 229 230 231 231 232 234 235 236 236 237 238 239 240 241 242 243 244 244 245 246 248 250 251 252 254 255 256 257 259 261 263 265 267 268 271 273 275 276 277 278 279 279 280 281 283 285 286 287 288 289 290 292 294 296 297 297 300 303 304 302 300 298 299 299 298 299 302 302 301 300 298 299 302 299
223 222 222 223 223 223 224 224 225 226 227 228 229 230 231 231 232 233 234 235 236 237 237 238 239 241 242 243 243 244 244 245 246 248 250 250 251 253 254 256 257 259 262 264 265 267 269 271 273 275 277 277 276 276 276 278 280 281 283 285 286 286 287 289 292 294 293 293 295 299 301 301 300 299 297 297 296 296 299 301 299 298 298 297 296 296 294
224 223 223 224 224 224 224 225 226 226 228 228 229 230 231 231 232 233 234 235 237 238 238 238 239 240 241 243 244 245 246 247 248 249 250 252 252 254 255 257 258 260 262 264 266 268 270 271 273 274 275 275 276 276 276 277 278 279 281 283 285 285 287 289 291 290 290 293 296 298 297 298 298 297 296 296 297 297 298 296 295 296 297 296 295 294 293
225 225 224 225 225 225 226 226 226 227 228 229 230 231 231 232 233 234 234 235 237 238 239 239 239 240 241 243 244 245 246 247 249 250 251 252 253 254 255 257 258 260 262 264 266 267 268 270 270 271 273 274 275 276 277 278 278 278 279 280 282 285 286 288 289 289 290 292 295 296 296 297 296 294 294 296 298 297 296 294 295 296 296 295 296 295 293
227 226 225 225 226 226 226 227 227 227 228 229 230 231 232 232 233 234 235 236 237 238 239 239 240 240 241 242 244 245 246 247 249 250 251 252 253 254 255 257 258 260 262 263 265 266 267 267 268 269 270 272 274 276 278 278 278 277 278 279 281 283 285 287 288 289 290 291 293 294 295 295 294 293 295 296 295 294 293 293 295 295 294 295 295 294 293
230 228 227 227 226 227 227 227 228 228 229 229 230 231 232 232 233 234 235 236 237 238 239 240 241 241 242 243 244 245 246 247 248 249 251 251 253 254 255 256 258 260 261 263 263 264 264 265 265 266 268 270 273 275 277 277 277 277 278 279 280 282 284 286 287 288 290 291 292 293 295 294 292 293 294 293 292 292 292 292 292 293 293 293 293 292 293
232 230 229 228 228 227 228 228 228 229 229 230 231 232 232 233 234 234 235 236 237 238 239 240 241 242 242 243 244 245 246 247 248 249 250 251 252 254 254 255 256 258 260 262 262 262 262 263 263 265 266 269 271 273 274 275 276 277 278 278 279 280 281 283 286 288 290 291 292 293 294 292 291 291 292 293 293 292 290 289 290 291 291 290 289 290 291
233 232 231 230 229 229 228 229 229 229 229 230 231 232 233 233 234 235 235 237 238 238 239 240 241 242 243 243 244 245 246 247 249 249 250 252 253 254 254 254 255 257 258 260 260 261 262 262 263 264 266 268 269 270 272 273 275 276 278 279 279 280 281 282 283 286 288 289 291 292 292 290 289 290 292 293 293 290 289 288 289 289 288 287 287 288 290
234 233 232 231 231 230 229 229 229 230 230 230 231 232 233 233 234 235 236 237 238 239 239 240 241 242 243 244 245 246 247 248 249 250 251 252 253 254 255 255 256 256 257 257 258 260 261 262 263 264 265 266 267 269 270 272 274 276 278 279 279 280 282 282 283 284 284 285 287 289 289 289 289 289 291 292 291 290 289 288 288 288 287 287 288 290 291
234 234 233 233 232 231 231 230 230 230 230 230 231 232 233 233 234 235 236 237 238 239 240 241 241 242 244 245 245 246 246 247 248 249 250 251 253 254 255 256 255 255 255 256 257 258 260 261 263 264 265 266 266 268 270 272 274 275 277 278 280 281 282 283 283 284 283 283 283 285 286 287 286 287 290 291 290 290 289 287 287 287 286 287 288 290 292
234 234 233 233 233 233 232 231 231 231 231 231 231 232 233 233 234 234 235 236 238 239 240 240 241 242 243 244 245 246 246 247 248 249 250 251 252 254 255 256 255 254 254 255 256 258 260 262 264 265 266 267 268 269 270 271 273 274 276 277 279 281 282 283 283 283 283 283 283 284 284 283 283 284 286 287 287 287 286 286 286 286 286 286 287 288 290
235 235 234 233 233 233 233 232 232 232 232 232 231 232 232 233 234 234 235 236 237 239 239 240 241 242 243 243 244 246 246 247 248 249 250 251 252 253 255 255 255 255 255 256 257 259 261 263 265 265 266 268 269 270 271 272 273 274 275 277 278 280 281 282 283 283 282 282 283 284 284 283 282 283 283 283 283 283 283 283 284 284 285 285 286 286 288
235 235 235 234 234 234 233 233 233 233 233 233 232 232 233 233 233 234 235 236 237 238 239 240 241 242 243 243 244 245 246 247 248 249 250 251 251 252 253 255 256 257 257 257 258 259 261 263 265 266 267 268 269 270 271 272 273 274 275 276 278 279 279 280 280 281 281 282 282 283 283 282 281 282 282 282 283 282 282 281 282 282 283 284 285 286 287
236 236 235 235 235 234 234 234 233 233 233 233 233 233 233 233 234 234 234 235 236 238 238 239 240 241 242 243 243 244 245 246 247 248 249 250 251 252 253 254 256 257 258 259 259 260 261 263 265 267 268 268 269 270 271 272 273 274 275 275 276 277 277 278 279 280 280 281 282 282 281 280 279 280 281 281 282 282 281 280 281 282 283 285 286 287 287
236 236 236 236 235 235 235 234 234 234 234 234 234 234 234 234 234 234 235 235 236 237 238 238 239 240 241 242 243 243 244 245 246 247 248 250 251 252 253 255 256 258 259 260 261 261 262 262 264 266 267 268 268 269 269 270 271 271 272 273 274 275 276 276 277 278 279 280 281 281 280 280 280 280 281 281 281 280 279 280 281 282 284 285 286 287 288
236 236 237 236 236 236 235 235 235 235 234 234 234 234 235 235 235 235 235 236 236 237 238 238 239 240 241 242 243 244 245 245 246 247 249 250 251 253 254 255 256 257 259 260 261 261 261 261 262 264 265 266 267 268 268 269 269 270 270 271 273 274 275 276 276 277 278 279 280 280 280 280 280 280 279 279 279 279 279 280 281 282 283 283 284 286 287
236 236 236 236 237 236 236 236 236 236 235 235 234 235 235 235 235 235 236 237 237 238 238 238 238 239 240 242 243 244 244 245 246 246 247 249 250 251 253 254 255 256 257 258 259 260 260 260 261 262 262 264 265 267 267 268 268 269 270 271 272 274 275 276 277 277 278 279 279 279 278 277 277 277 277 278 278 279 280 281 281 282 282 283 284 286 287
236 236 236 236 236 236 236 236 236 236 236 235 235 235 235 236 236 236 236 237 238 239 239 239 239 239 240 241 242 244 244 245 245 246 247 248 249 250 252 253 254 255 255 256 257 258 259 260 260 260 261 262 263 265 266 267 268 268 270 271 273 274 275 276 277 278 278 277 277 276 275 275 276 276 276 277 277 278 279 280 281 281 282 283 284 286 287
237 236 236 235 235 236 236 236 236 236 236 236 236 235 236 236 236 236 236 237 238 239 240 240 240 240 241 242 243 244 245 245 245 246 246 247 249 250 251 253 254 254 255 255 256 257 258 259 260 260 261 262 263 264 265 267 268 269 270 271 273 274 275 276 277 277 276 276 275 275 275 275 276 275 275 276 277 278 279 279 280 281 282 283 284 285 287
237 236 236 235 235 235 235 236 236 236 236 236 236 236 236 236 237 237 237 237 238 239 240 240 240 241 241 242 243 244 245 246 246 246 247 247 249 250 251 253 254 254 254 255 256 256 257 258 259 260 261 262 263 264 265 266 267 268 269 270 272 273 274 274 275 275 275 276 276 276 275 276 276 276 276 277 277 277 278 279 280 281 283 284 285 287 288
236 236 236 235 235 235 235 235 235 236 236 237 237 236 236 236 237 237 237 238 238 239 240 241 241 241 242 242 243 244 245 246 247 248 248 248 249 250 252 253 254 254 255 255 256 256 256 257 258 260 260 261 263 264 265 266 267 267 268 269 271 272 273 273 274 275 275 276 276 276 276 276 276 277 277 278 277 277 277 279 280 282 283 285 286 288 290
236 235 235 235 235 235 235 234 234 235 236 236 237 237 236 236 236 237 238 238 238 239 240 241 241 241 242 243 243 244 245 246 247 248 249 249 249 250 252 253 254 254 255 255 256 256 256 257 258 259 260 260 261 262 264 265 266 267 268 269 270 271 272 273 274 274 274 275 276 277 277 277 278 279 279 279 278 279 281 282 283 284 285 286 288 289 291
235 235 235 235 235 235 235 235 235 235 235 236 236 237 237 237 237 237 237 238 239 239 240 241 242 242 243 244 244 244 245 245 247 248 249 250 250 250 251 253 255 255 255 255 256 256 257 257 257 258 258 259 259 260 262 263 265 266 267 269 269 270 271 272 272 272 273 275 276 276 277 277 278 279 279 279 280 282 284 284 284 285 286 288 289 291 292
235 234 234 234 234 235 235 235 235 235 235 235 236 236 237 237 237 237 238 238 239 240 241 242 242 243 243 244 244 245 245 245 246 247 249 250 250 251 251 253 254 256 256 255 256 256 257 257 256 257 257 258 259 259 260 262 264 265 266 267 269 269 270 270 271 271 272 273 275 275 276 277 278 278 278 280 282 283 284 284 285 285 287 288 290 291 293
235 234 234 234 234 234 235 235 235 235 235 236 236 236 237 237 238 238 238 238 239 240 240 242 243 243 244 244 244 245 245 246 246 247 248 249 250 250 251 252 253 255 256 256 256 256 256 257 257 257 257 258 259 259 260 261 262 263 265 267 268 269 270 270 271 271 272 273 274 275 276 276 277 278 280 281 283 284 284 285 285 286 288 289 291 292 293
235 234 234 234 234 234 234 235 235 235 236 236 236 236 236 237 237 238 238 239 239 240 240 241 242 244 244 244 244 245 245 246 246 247 247 248 249 250 251 251 252 253 255 256 256 256 255 256 257 257 258 258 259 259 259 260 261 262 265 267 269 269 270 270 271 271 272 273 274 274 275 276 277 279 280 282 283 284 284 284 285 287 289 290 291 291 292
235 234 234 234 234 234 234 234 235 235 236 236 236 237 237 237 237 238 238 239 239 240 240 241 242 244 245 245 245 245 245 246 247 247 248 248 249 250 250 251 252 253 254 255 257 257 256 256 256 257 258 259 259 258 259 260 261 263 265 267 268 268 269 270 271 272 273 274 274 274 275 276 278 279 281 282 282 283 284 284 286 288 289 290 290 291 292
234 234 234 233 234 234 234 234 235 235 236 236 237 237 237 237 237 238 238 239 239 240 240 241 242 243 245 246 246 246 246 247 247 248 248 249 249 250 250 251 251 252 253 254 255 257 257 257 256 257 258 259 260 259 259 261 262 264 265 266 267 268 269 270 271 272 272 273 274 275 276 278 280 280 281 282 283 283 284 285 287 289 290 290 290 291 292
233 234 234 233 233 233 234 234 235 235 236 236 237 237 237 237 238 238 238 239 239 240 240 241 241 243 244 246 247 247 247 247 248 248 248 249 249 250 251 251 251 252 253 253 254 255 256 257 257 257 257 258 260 261 261 262 264 265 265 265 266 268 269 270 271 271 272 272 274 275 277 279 280 280 281 282 283 283 284 286 288 289 289 289 289 291 292
233 233 233 233 233 233 233 234 234 235 236 236 237 237 238 238 238 239 239 239 240 240 241 241 241 242 243 245 246 247 247 248 248 248 249 250 250 250 251 252 252 253 253 254 254 254 255 256 258 258 258 258 260 262 263 264 264 264 265 265 266 267 268 269 270 272 273 273 274 276 277 278 279 279 280 281 282 283 285 286 287 287 287 288 289 290 291
232 233 233 233 233 233 234 234 234 235 235 236 237 238 238 238 239 239 240 240 240 240 241 241 242 242 243 244 246 247 247 248 248 249 249 250 251 251 252 252 253 253 254 254 255 256 256 257 257 258 259 260 261 263 264 265 265 265 265 266 267 268 269 270 271 272 273 274 276 276 277 277 278 279 280 280 281 282 284 285 285 286 287 288 289 290 291
232 232 232 233 234 234 234 234 234 234 235 236 237 238 238 239 239 240 240 241 241 242 242 242 242 243 243 244 245 247 247 247 248 249 250 250 251 252 252 253 254 254 255 255 256 257 258 258 258 259 260 261 263 264 264 265 265 266 266 267 267 268 269 270 271 271 273 274 276 276 276 277 278 278 279 280 281 282 283 284 285 286 286 287 289 290 291
232 232 232 232 233 234 234 234 234 234 235 236 237 238 238 239 240 240 241 242 243 243 243 243 243 244 244 244 245 247 248 248 249 249 250 250 251 252 253 254 254 255 256 256 257 258 258 259 259 260 261 261 262 263 264 264 265 265 265 266 267 267 268 269 270 271 272 273 275 275 276 277 278 278 278 280 281 282 282 283 284 285 286 287 288 289 289
229 230 231 231 232 234 234 234 234 234 235 235 236 237 238 239 240 241 241 242 243 244 244 244 244 244 245 245 246 247 248 249 250 250 250 251 252 253 254 254 255 256 256 257 257 258 259 259 260 260 261 261 262 262 263 263 263 263 264 265 266 267 267 268 270 271 272 273 274 275 276 276 277 277 278 279 280 281 281 282 283 284 285 286 287 287 288
227 228 229 230 231 233 234 234 234 234 235 235 236 237 238 239 240 241 241 242 243 244 244 245 245 246 246 247 247 249 249 250 251 252 252 252 252 253 254 255 256 256 257 258 258 258 259 259 260 260 261 261 261 261 261 262 262 263 264 264 265 267 268 268 269 270 272 272 273 273 274 274 275 276 277 278 278 279 280 281 282 283 284 284 285 286 288
224 225 226 227 229 230 232 233 234 234 235 236 237 237 238 239 240 240 241 242 243 244 245 246 247 248 248 249 249 250 251 251 251 252 252 253 253 253 254 255 256 256 257 258 258 258 259 260 260 260 260 260 260 260 260 261 262 263 264 264 265 266 267 268 268 269 270 271 271 271 272 272 273 274 276 276 277 278 279 280 281 282 282 283 284 286 287
222 224 225 226 227 229 231 232 233 234 234 235 236 237 238 239 239 240 241 242 243 245 246 247 248 249 250 250 250 250 251 251 251 251 252 254 255 255 255 256 256 257 257 258 258 259 259 260 260 260 260 260 260 260 261 261 262 262 263 264 265 265 266 267 267 268 268 268 269 269 270 271 272 273 274 275 276 277 278 279 279 280 281 282 284 285 286
221 222 223 223 224 226 228 229 230 231 232 233 235 236 238 238 239 240 242 244 245 246 247 248 248 248 248 249 249 250 251 252 253 253 254 255 256 256 256 256 257 257 257 257 257 258 258 259 259 259 260 260 261 261 261 261 261 262 262 263 263 264 264 265 265 265 266 266 267 267 269 270 271 272 272 273 274 275 276 277 278 279 281 282 284 285 286
218 219 219 219 221 222 223 225 226 228 229 231 233 234 236 239 240 242 244 245 245 245 245 245 246 247 248 249 251 253 254 255 255 255 255 255 255 255 255 255 254 254 254 255 255 256 256 257 257 258 259 259 260 260 260 261 261 262 262 262 262 262 263 263 263 263 264 264 265 266 267 268 269 270 271 272 273 274 275 276 277 279 281 282 284 285 286
213 213 214 214 216 217 219 221 223 224 226 229 231 234 237 240 242 242 242 242 242 243 243 245 247 250 251 252 254 255 255 255 255 255 255 254 253 253 252 252 251 252 252 253 253 254 254 255 256 256 257 258 259 259 260 260 261 261 261 261 261 261 261 261 261 262 263 263 264 265 265 266 267 269 270 271 272 273 274 275 277 279 280 282 283 285 287
207 208 208 209 211 212 213 216 219 221 224 227 230 233 236 237 238 239 239 240 242 244 247 249 251 253 254 254 254 254 254 254 254 254 253 252 251 250 249 249 249 249 250 250 251 251 252 253 254 255 256 257 258 259 259 260 261 261 260 259 259 259 260 260 260 261 261 262 263 264 265 266 267 268 268 269 270 272 274 275 277 278 280 281 283 285 287
202 202 203 204 206 207 209 213 215 218 221 225 227 229 231 233 235 237 239 242 245 248 250 251 252 252 253 253 252 252 252 252 251 251 250 249 248 247 246 246 246 246 247 247 248 249 250 251 252 253 255 256 257 258 258 257 258 259 260 260 259 260 261 261 261 261 261 262 263 263 264 264 265 266 267 268 270 271 273 275 277 278 280 282 283 285 287
195 196 198 200 201 202 204 207 209 211 215 219 222 225 228 232 235 238 242 245 247 248 249 250 250 250 249 249 249 248 248 248 247 246 245 244 244 244 243 243 243 244 244 245 246 247 248 250 251 252 253 254 255 256 256 253 251 253 258 261 262 261 260 261 261 261 261 261 261 261 261 262 263 265 266 268 269 271 273 275 276 278 280 282 284 285 287
189 191 193 195 195 194 195 198 202 206 210 216 220 224 229 233 237 240 243 244 245 246 247 247 246 245 244 243 242 242 242 242 241 240 240 239 238 237 237 238 239 240 241 242 243 245 246 248 249 250 251 251 251 251 251 249 248 251 256 260 260 259 258 258 258 259 259 259 258 259 260 261 262 264 265 267 269 270 272 274 277 279 281 282 284 285 286
185 187 188 187 186 186 189 194 200 205 211 216 221 225 229 233 236 238 240 241 242 242 241 240 239 238 238 237 236 235 234 234 234 233 233 233 232 232 232 232 234 236 237 238 239 241 241 242 243 244 245 244 243 242 242 244 247 250 253 254 254 254 254 254 254 254 255 255 256 256 258 259 261 263 265 267 269 271 274 276 278 280 282 283 284 284 285
183 182 182 183 184 187 192 197 203 208 212 216 220 223 226 230 232 234 236 237 237 236 235 235 234 233 231 229 227 226 226 227 227 227 228 228 228 228 229 229 231 232 232 232 232 233 234 233 232 232 233 233 232 232 234 238 242 245 246 247 248 249 249 249 249 250 251 252 254 256 258 260 263 265 268 270 273 275 278 279 281 281 282 283 283 284 284
181 182 184 186 189 193 196 200 204 208 210 213 215 218 220 223 226 228 228 229 229 229 227 225 224 223 221 220 220 219 219 219 219 221 222 222 221 221 221 222 222 222 223 222 222 223 225 224 222 222 223 225 225 224 225 230 234 238 240 242 244 245 246 248 249 250 252 255 257 259 262 264 266 269 272 275 277 279 281 282 282 283 283 283 283 283 284
Height
10770 10776 10782 10787 10793 10798 10803 10808 10813 10817 10822 10827 10832 10837 10841 10846 10849 10850 10853 10859 10866 10871 10874 10878 10880 10878 10880 10884 10888 10893 10897 10901 10907 10905 10902 10906 10910 10911 10913 10914 10914 10913 10914 10917 10922 10925 10925 10926 10929 10932 10934 10936 10939 10943 10941 10939 10938 10932 10929 10934 10935 10932 10932 10932 10932 10933 10931 10930 10929 10926 10924 10923 10922 10921 10919 10919 10919 10918 10915 10912 10910 10908 10906 10905 10904 10902 10901
10763 10768 10774 10779 10785 10790 10795 10800 10805 10809 10814 10819 10824 10829 10833 10837 10840 10842 10847 10853 10859 10864 10867 10870 10871 10871 10874 10878 10881 10887 10890 10893 10899 10898 10895 10899 10903 10903 10904 10907 10908 10907 10907 10910 10915 10918 10917 10917 10922 10926 10928 10930 10934 10937 10935 10933 10933 10928 10924 10927 10929 10927 10927 10926 10926 10926 10925 10925 10926 10924 10921 10918 10917 10915 10913 10912 10913 10912 10910 10908 10906 10904 10902 10901 10900 10898 10897
10755 10760 10766 10771 10776 10781 10786 10791 10796 10801 10806 10810 10816 10821 10824 10829 10833 10837 10842 10846 10851 10856 10859 10861 10862 10863 10867 10870 10873 10879 10882 10882 10888 10890 10886 10889 10893 10893 10895 10899 10901 10901 10902 10904 10908 10910 10908 10909 10915 10920 10922 10924 10927 10929 10929 10928 10928 10923 10919 10921 10922 10921 10921 10920 10920 10919 10918 10918 10920 10920 10918 10916 10912 10910 10908 10907 10907 10907 10904 10902 10900 10899 10897 10896 10895 10893 10892
10747 10752 10757 10762 10768 10773 10778 10783 10788 10793 10798 10802 10808 10813 10816 10821 10827 10832 10834 10836 10840 10845 10849 10851 10853 10855 10860 10864 10866 10872 10874 10875 10879 10881 10878 10880 10885 10886 10889 10893 10895 10894 10895 10897 10901 10903 10901 10901 10906 10912 10916 10917 10919 10921 10922 10922 10922 10917 10914 10915 10915 10915 10916 10915 10913 10912 10911 10912 10912 10912 10913 10913 10910 10906 10903 10901 10902 10902 10900 10899 10896 10894 10893 10892 10890 10888 10886
10739 10744 10749 10754 10759 10764 10769 10775 10780 10785 10790 10794 10799 10804 10808 10814 10820 10822 10822 10824 10830 10835 10840 10843 10845 10847 10851 10854 10857 10862 10867 10868 10869 10868 10869 10874 10879 10880 10883 10886 10886 10886 10887 10890 10894 10897 10896 10895 10897 10903 10908 10911 10913 10914 10914 10913 10913 10911 10908 10908 10907 10907 10909 10910 10908 10906 10905 10905 10904 10904 10906 10907 10907 10903 10899 10896 10895 10895 10894 10894 10892 10890 10889 10886 10884 10884 10882
10731 10736 10741 10745 10750 10755 10761 10766 10771 10776 10782 10786 10791 10795 10800 10806 10810 10810 10812 10816 10820 10825 10831 10835 10836 10837 10841 10845 10847 10852 10856 10857 10858 10858 10862 10869 10872 10872 10873 10876 10877 10877 10880 10884 10887 10890 10891 10890 10890 10892 10897 10904 10907 10908 10906 10905 10905 10904 10901 10900 10901 10901 10902 10903 10903 10902 10900 10898 10898 10898 10898 10899 10900 10898 10895 10892 10889 10887 10888 10889 10888 10886 10885 10882 10880 10880 10879
10722 10727 10732 10737 10741 10746 10752 10757 10762 10768 10773 10778 10783 10786 10790 10796 10799 10801 10806 10810 10811 10816 10823 10827 10828 10830 10834 10836 10837 10841 10846 10848 10851 10852 10854 10859 10864 10865 10865 10867 10870 10871 10873 10878 10881 10883 10885 10885 10885 10884 10885 10891 10897 10899 10899 10899 10899 10898 10893 10892 10894 10894 10894 10897 10897 10896 10894 10893 10892 10892 10892 10892 10892 10890 10888 10886 10883 10881 10882 10883 10882 10881 10881 10879 10877 10877 10875
10712 10718 10723 10727 10732 10737 10743 10748 10753 10758 10764 10769 10773 10775 10780 10786 10789 10793 10799 10802 10803 10807 10813 10818 10820 10821 10824 10827 10828 10833 10839 10841 10844 10846 10847 10852 10857 10859 10857 10859 10863 10865 10868 10872 10875 10878 10880 10880 10879 10877 10874 10877 10883 10887 10891 10894 10894 10892 10888 10887 10887 10887 10887 10890 10891 10889 10887 10886 10886 10887 10887 10887 10886 10883 10881 10879 10877 10876 10876 10875 10874 10875 10876 10875 10873 10872 10870
10704 10709 10713 10718 10722 10727 10733 10739 10744 10749 10755 10759 10762 10765 10770 10776 10780 10785 10791 10794 10796 10798 10802 10807 10810 10811 10816 10819 10821 10826 10832 10834 10836 10839 10842 10846 10848 10850 10850 10852 10857 10860 10862 10866 10871 10872 10874 10874 10872 10869 10866 10867 10871 10874 10880 10885 10886 10885 10884 10882 10881 10880 10880 10881 10883 10883 10881 10880 10880 10880 10880 10881 10880 10876 10873 10872 10871 10869 10868 10867 10866 10867 10867 10866 10866 10864 10862
10695 10700 10704 10709 10713 10717 10723 10728 10734 10739 10745 10749 10752 10755 10761 10766 10771 10777 10782 10784 10786 10787 10790 10794 10798 10802 10809 10813 10815 10819 10823 10826 10828 10830 10835 10838 10838 10841 10844 10846 10851 10854 10856 10861 10865 10865 10866 10866 10865 10862 10859 10859 10862 10865 10869 10873 10874 10875 10877 10877 10875 10875 10874 10874 10875 10875 10874 10874 10875 10874 10875 10875 10871 10868 10867 10867 10865 10862 10860 10859 10858 10859 10859 10857 10856 10854 10852
10687 10691 10695 10699 10703 10708 10713 10718 10723 10729 10735 10739 10742 10745 10751 10757 10762 10768 10771 10772 10774 10777 10780 10783 10788 10795 10802 10805 10807 10810 10812 10816 10819 10821 10826 10828 10828 10831 10837 10840 10844 10847 10849 10854 10857 10856 10856 10856 10855 10855 10854 10854 10857 10858 10858 10860 10862 10865 10868 10870 10869 10869 10868 10867 10868 10868 10867 10867 10867 10868 10870 10867 10862 10860 10860 10861 10859 10857 10854 10851 10850 10851 10851 10850 10847 10844 10843
10678 10682 10686 10690 10693 10698 10703 10707 10713 10718 10724 10729 10732 10735 10741 10748 10753 10757 10760 10760 10762 10768 10772 10774 10779 10786 10791 10794 10798 10801 10804 10807 10810 10814 10817 10817 10818 10822 10828 10831 10836 10839 10842 10845 10845 10844 10846 10846 10845 10847 10849 10850 10851 10852 10851 10850 10852 10855 10858 10860 10862 10863 10862 10861 10860 10860 10860 10859 10858 10861 10862 10859 10853 10851 10852 10852 10853 10852 10848 10844 10843 10844 10843 10841 10839 10837 10836
10669 10673 10677 10680 10684 10688 10693 10697 10702 10707 10713 10718 10722 10725 10731 10737 10742 10745 10748 10750 10753 10759 10763 10765 10770 10775 10779 10783 10789 10793 10796 10799 10801 10805 10808 10806 10807 10810 10814 10820 10828 10833 10836 10835 10832 10832 10834 10835 10835 10839 10843 10844 10844 10844 10844 10844 10844 10846 10848 10850 10852 10854 10856 10856 10856 10856 10854 10851 10851 10853 10854 10850 10845 10843 10844 10845 10845 10844 10841 10837 10836 10837 10834 10831 10830 10830 10830
10659 10663 10667 10671 10674 10678 10682 10687 10691 10696 10702 10707 10711 10715 10720 10726 10731 10735 10738 10740 10743 10747 10751 10755 10761 10766 10768 10774 10780 10784 10788 10791 10793 10795 10796 10796 10796 10798 10803 10812 10821 10824 10826 10824 10822 10822 10822 10822 10824 10830 10835 10838 10837 10837 10838 10838 10838 10838 10838 10839 10841 10844 10848 10849 10850 10851 10849 10846 10847 10847 10845 10843 10838 10834 10835 10838 10837 10835 10833 10830 10828 10828 10825 10821 10819 10820 10820
10648 10652 10656 10661 10664 10668 10672 10676 10680 10685 10690 10695 10700 10704 10709 10715 10721 10725 10728 10730 10732 10736 10742 10747 10754 10757 10758 10763 10770 10774 10777 10780 10782 10784 10785 10786 10787 10788 10792 10802 10809 10810 10811 10813 10813 10813 10811 10810 10815 10821 10825 10828 10829 10830 10832 10831 10831 10830 10829 10829 10830 10833 10837 10840 10841 10843 10843 10841 10842 10842 10841 10838 10832 10827 10828 10830 10828 10826 10824 10821 10820 10819 10817 10813 10811 10810 10810
10637 10641 10645 10650 10654 10658 10662 10666 10670 10674 10678 10684 10690 10694 10698 10704 10709 10713 10717 10719 10721 10725 10732 10738 10743 10746 10748 10753 10759 10762 10765 10769 10772 10772 10773 10776 10780 10779 10780 10786 10791 10793 10798 10802 10803 10803 10801 10803 10808 10812 10815 10817 10819 10822 10825 10825 10825 10824 10820 10820 10822 10824 10827 10829 10831 10834 10834 10833 10834 10836 10836 10833 10827 10823 10823 10824 10823 10820 10816 10813 10811 10810 10809 10808 10806 10804 10802
10626 10629 10634 10638 10643 10647 10651 10655 10660 10663 10667 10673 10678 10683 10687 10692 10697 10702 10706 10709 10712 10715 10722 10729 10731 10733 10738 10743 10748 10751 10754 10758 10761 10762 10762 10766 10770 10770 10769 10770 10773 10777 10786 10794 10796 10796 10795 10796 10799 10803 10806 10808 10809 10812 10815 10816 10817 10817 10813 10812 10815 10817 10819 10820 10822 10823 10824 10825 10826 10828 10828 10825 10820 10818 10817 10817 10817 10816 10811 10807 10804 10802 10801 10801 10799 10798 10796
10614 10618 10622 10627 10631 10636 10640 10644 10649 10653 10657 10662 10667 10672 10676 10680 10686 10691 10696 10700 10702 10705 10712 10719 10719 10721 10727 10733 10739 10741 10743 10746 10749 10751 10751 10755 10758 10759 10758 10757 10759 10765 10775 10784 10788 10790 10790 10789 10790 10793 10798 10800 10800 10802 10805 10806 10806 10806 10804 10804 10806 10809 10811 10812 10813 10814 10815 10816 10818 10820 10820 10816 10812 10811 10810 10808 10809 10809 10806 10802 10798 10795 10794 10793 10792 10790 10788
10602 10606 10610 10615 10620 10624 10628 10633 10637 10642 10646 10651 10656 10661 10665 10669 10675 10681 10685 10690 10692 10693 10699 10705 10707 10710 10717 10722 10726 10729 10731 10734 10738 10739 10740 10743 10746 10747 10747 10748 10752 10757 10763 10771 10779 10783 10785 10784 10783 10783 10786 10789 10791 10793 10795 10797 10797 10796 10794 10794 10796 10799 10801 10804 10805 10805 10805 10806 10808 10811 10812 10809 10805 10803 10803 10802 10801 10800 10797 10794 10791 10788 10786 10785 10783 10781 10779
10589 10593 10597 10603 10608 10613 10617 10621 10626 10631 10635 10640 10646 10650 10654 10659 10665 10670 10674 10678 10679 10679 10684 10692 10698 10702 10706 10708 10710 10713 10719 10723 10726 10728 10731 10733 10735 10736 10737 10741 10748 10751 10753 10760 10769 10774 10777 10777 10776 10774 10776 10777 10779 10781 10785 10787 10788 10787 10784 10783 10786 10789 10792 10795 10797 10796 10796 10798 10800 10801 10801 10800 10798 10796 10796 10795 10793 10791 10788 10786 10784 10782 10779 10777 10774 10771 10770
10577 10581 10585 10589 10594 10600 10605 10610 10614 10619 10624 10629 10635 10639 10643 10648 10654 10658 10662 10666 10668 10668 10673 10683 10690 10692 10693 10696 10697 10702 10708 10714 10717 10721 10723 10724 10726 10728 10728 10732 10740 10744 10745 10751 10758 10761 10764 10767 10767 10767 10768 10766 10766 10769 10773 10776 10777 10777 10774 10773 10776 10780 10783 10786 10788 10788 10789 10791 10793 10793 10792 10791 10791 10789 10788 10787 10784 10781 10779 10779 10778 10776 10773 10770 10767 10764 10763
10564 10568 10572 10576 10581 10587 10592 10597 10602 10607 10612 10618 10624 10629 10633 10637 10642 10647 10652 10656 10659 10658 10662 10672 10678 10680 10682 10684 10686 10690 10697 10702 10707 10711 10713 10713 10715 10718 10717 10719 10728 10735 10737 10741 10745 10746 10751 10756 10757 10758 10759 10757 10756 10759 10761 10764 10767 10766 10763 10763 10766 10771 10775 10777 10778 10780 10782 10783 10785 10785 10783 10783 10783 10782 10780 10779 10776 10773 10771 10771 10769 10767 10765 10762 10759 10758 10757
10549 10554 10559 10563 10568 10573 10579 10584 10589 10594 10599 10605 10612 10618 10622 10626 10631 10636 10641 10645 10647 10646 10650 10659 10666 10668 10671 10673 10676 10679 10684 10689 10694 10699 10701 10702 10705 10708 10707 10707 10715 10723 10727 10731 10733 10734 10738 10742 10745 10748 10749 10748 10748 10749 10750 10753 10756 10755 10754 10754 10756 10760 10765 10768 10769 10771 10773 10774 10776 10776 10774 10775 10776 10775 10773 10771 10769 10766 10764 10762 10760 10758 10756 10755 10753 10751 10750
10535 10540 10545 10549 10554 10559 10565 10570 10576 10581 10586 10592 10599 10606 10611 10615 10619 10624 10629 10634 10636 10636 10640 10648 10654 10657 10661 10665 10669 10670 10671 10676 10682 10687 10690 10693 10695 10697 10696 10695 10702 10711 10716 10720 10723 10725 10727 10730 10733 10738 10740 10739 10739 10740 10740 10742 10746 10746 10746 10746 10747 10751 10755 10757 10758 10760 10760 10762 10765 10766 10766 10766 10767 10767 10766 10764 10762 10759 10756 10753 10751 10749 10748 10747 10746 10744 10743
10520 10525 10530 10535 10539 10545 10550 10556 10562 10567 10573 10579 10585 10592 10599 10603 10607 10612 10618 10623 10627 10628 10631 10637 10642 10647 10651 10655 10658 10658 10659 10664 10669 10674 10679 10684 10686 10687 10685 10684 10690 10699 10704 10708 10712 10715 10718 10721 10723 10728 10731 10729 10728 10729 10730 10732 10735 10738 10739 10738 10737 10742 10746 10746 10747 10749 10749 10750 10753 10755 10757 10758 10758 10757 10756 10755 10753 10751 10748 10745 10742 10741 10740 10738 10737 10735 10734
10505 10510 10515 10520 10525 10530 10535 10542 10548 10554 10559 10565 10571 10578 10585 10591 10596 10601 10608 10613 10616 10619 10622 10625 10629 10636 10641 10642 10645 10649 10651 10654 10658 10663 10669 10674 10678 10678 10674 10672 10679 10688 10692 10694 10700 10705 10709 10712 10715 10719 10721 10720 10719 10719 10720 10722 10725 10728 10731 10730 10730 10733 10735 10735 10737 10739 10739 10740 10741 10743 10745 10747 10748 10748 10747 10745 10742 10740 10739 10737 10734 10732 10731 10729 10727 10726 10725
10489 10495 10500 10505 10510 10515 10520 10527 10534 10540 10545 10551 10556 10563 10571 10578 10584 10590 10596 10601 10605 10609 10611 10613 10617 10626 10630 10630 10633 10640 10643 10645 10647 10651 10656 10661 10665 10668 10665 10662 10666 10675 10679 10682 10687 10693 10698 10703 10708 10710 10711 10710 10710 10710 10711 10711 10713 10718 10722 10723 10722 10723 10724 10725 10727 10729 10729 10730 10732 10733 10732 10733 10735 10736 10735 10731 10729 10728 10727 10726 10723 10721 10720 10719 10717 10716 10715
10473 10480 10485 10490 10495 10500 10506 10513 10520 10526 10532 10537 10542 10548 10556 10564 10571 10577 10583 10589 10594 10599 10602 10603 10606 10614 10619 10620 10623 10628 10632 10635 10638 10641 10644 10648 10653 10657 10658 10654 10654 10660 10667 10671 10675 10681 10688 10694 10698 10699 10699 10698 10699 10701 10702 10702 10704 10710 10714 10714 10713 10713 10714 10716 10717 10719 10720 10721 10722 10722 10722 10722 10724 10724 10722 10719 10719 10718 10716 10713 10710 10709 10708 10709 10707 10706 10704
10458 10464 10470 10476 10481 10486 10492 10499 10506 10512 10518 10523 10528 10534 10542 10550 10557 10565 10572 10578 10584 10588 10591 10593 10596 10601 10606 10609 10611 10614 10619 10625 10630 10632 10634 10637 10640 10645 10648 10647 10645 10647 10652 10659 10665 10671 10677 10682 10686 10687 10688 10687 10687 10691 10695 10695 10697 10703 10706 10705 10703 10704 10705 10705 10707 10709 10712 10714 10712 10711 10712 10713 10713 10712 10711 10710 10710 10708 10704 10701 10699 10698 10698 10699 10698 10697 10695
10443 10450 10456 10462 10467 10473 10479 10486 10492 10499 10504 10509 10514 10521 10529 10537 10545 10552 10559 10565 10571 10575 10580 10583 10585 10587 10591 10596 10598 10601 10606 10613 10618 10621 10623 10625 10628 10631 10635 10637 10637 10637 10638 10645 10654 10661 10665 10669 10674 10676 10677 10676 10676 10680 10685 10687 10690 10696 10699 10698 10695 10694 10693 10694 10696 10698 10702 10704 10703 10701 10702 10703 10702 10701 10702 10701 10700 10696 10692 10689 10687 10687 10688 10689 10688 10688 10687
10429 10436 10442 10448 10454 10460 10466 10473 10479 10485 10490 10494 10500 10508 10517 10525 10531 10539 10545 10551 10556 10562 10567 10572 10574 10575 10577 10580 10585 10590 10595 10600 10605 10609 10612 10614 10616 10618 10621 10626 10629 10629 10629 10633 10639 10647 10655 10660 10662 10664 10665 10664 10665 10669 10674 10677 10683 10691 10694 10691 10687 10682 10681 10683 10686 10687 10690 10692 10693 10692 10693 10693 10693 10693 10692 10691 10689 10686 10682 10678 10677 10678 10679 10678 10678 10678 10677
10416 10422 10429 10436 10441 10448 10454 10461 10466 10472 10476 10481 10488 10496 10505 10512 10518 10525 10531 10537 10542 10549 10555 10561 10564 10565 10564 10566 10571 10577 10584 10589 10593 10597 10599 10602 10605 10606 10609 10614 10618 10620 10622 10624 10627 10634 10643 10648 10650 10653 10655 10652 10651 10656 10663 10669 10678 10686 10688 10683 10677 10671 10669 10671 10673 10676 10679 10680 10680 10682 10684 10684 10685 10685 10682 10680 10679 10675 10670 10667 10669 10671 10670 10667 10665 10665 10665
10404 10410 10417 10424 10430 10436 10443 10449 10454 10459 10463 10469 10476 10485 10492 10498 10504 10511 10518 10524 10530 10536 10542 10549 10554 10555 10554 10553 10557 10564 10572 10577 10581 10585 10586 10588 10591 10595 10598 10602 10606 10609 10613 10618 10620 10623 10628 10632 10637 10644 10646 10640 10635 10641 10653 10664 10673 10678 10677 10673 10666 10661 10659 10659 10661 10665 10668 10667 10668 10671 10674 10675 10675 10674 10671 10669 10667 10663 10657 10657 10660 10661 10658 10653 10651 10651 10652
10393 10399 10405 10412 10419 10425 10432 10437 10443 10447 10452 10458 10466 10473 10479 10485 10492 10499 10505 10511 10517 10523 10529 10536 10542 10544 10544 10542 10543 10550 10558 10563 10566 10571 10573 10574 10579 10584 10585 10588 10593 10598 10603 10607 10610 10612 10616 10619 10624 10630 10634 10630 10624 10628 10645 10661 10667 10665 10663 10660 10655 10652 10649 10649 10650 10653 10655 10656 10659 10664 10666 10665 10662 10660 10659 10658 10656 10650 10647 10649 10652 10649 10644 10640 10639 10640 10641
10383 10388 10395 10402 10408 10414 10421 10426 10431 10436 10442 10449 10456 10461 10467 10474 10481 10486 10492 10498 10505 10511 10516 10522 10528 10533 10535 10532 10530 10536 10544 10547 10550 10556 10560 10562 10566 10571 10573 10575 10582 10588 10592 10594 10596 10602 10609 10612 10611 10613 10619 10619 10615 10623 10640 10652 10652 10648 10647 10645 10643 10641 10638 10638 10640 10641 10641 10644 10651 10656 10657 10655 10651 10649 10649 10648 10645 10642 10641 10642 10642 10638 10632 10629 10629 10630 10630
10372 10379 10386 10392 10398 10405 10411 10415 10420 10426 10434 10440 10445 10451 10457 10464 10470 10476 10480 10485 10492 10498 10504 10509 10515 10519 10523 10522 10518 10520 10527 10532 10535 10541 10547 10550 10554 10557 10560 10565 10571 10575 10578 10581 10586 10593 10599 10600 10598 10600 10606 10608 10612 10622 10632 10634 10631 10632 10633 10631 10629 10629 10626 10626 10630 10632 10630 10632 10639 10644 10644 10642 10641 10640 10638 10637 10636 10636 10634 10631 10629 10626 10623 10620 10619 10619 10618
10364 10371 10378 10384 10390 10395 10399 10404 10412 10419 10426 10431 10436 10442 10448 10454 10460 10466 10470 10473 10479 10485 10491 10497 10501 10504 10508 10510 10506 10504 10510 10519 10524 10528 10534 10538 10541 10544 10548 10553 10559 10562 10566 10572 10579 10583 10585 10584 10586 10591 10597 10603 10608 10614 10617 10616 10617 10620 10619 10615 10615 10617 10615 10615 10619 10623 10622 10624 10628 10629 10628 10629 10630 10629 10627 10626 10627 10628 10625 10620 10617 10615 10612 10610 10609 10608 10606
10357 10364 10371 10376 10381 10384 10389 10396 10405 10412 10417 10422 10428 10433 10439 10445 10451 10457 10460 10463 10467 10472 10478 10483 10486 10487 10492 10496 10494 10492 10497 10506 10512 10517 10522 10525 10528 10532 10536 10541 10546 10551 10555 10563 10570 10571 10569 10570 10575 10581 10587 10595 10600 10601 10602 10603 10604 10603 10602 10601 10601 10602 10604 10605 10607 10610 10614 10617 10618 10615 10615 10617 10617 10616 10615 10616 10617 10616 10613 10610 10607 10604 10602 10600 10599 10597 10593
10350 10357 10363 10368 10371 10375 10381 10390 10398 10404 10409 10415 10420 10426 10431 10437 10442 10447 10450 10453 10457 10460 10463 10467 10470 10471 10476 10482 10484 10483 10488 10495 10500 10504 10510 10515 10519 10522 10525 10529 10535 10539 10544 10552 10558 10557 10554 10557 10563 10568 10575 10584 10589 10589 10587 10586 10585 10585 10588 10589 10587 10588 10594 10598 10597 10598 10603 10608 10607 10605 10604 10604 10602 10601 10603 10605 10605 10603 10601 10599 10596 10594 10593 10591 10588 10585 10583
10344 10349 10354 10358 10362 10368 10376 10384 10390 10396 10402 10408 10413 10419 10424 10428 10431 10436 10440 10443 10445 10447 10449 10452 10456 10460 10465 10472 10475 10475 10480 10487 10491 10493 10497 10503 10508 10512 10515 10519 10523 10527 10532 10539 10542 10541 10540 10543 10549 10555 10563 10571 10573 10571 10568 10567 10570 10573 10576 10576 10576 10579 10583 10586 10587 10590 10593 10594 10594 10594 10594 10591 10589 10589 10592 10593 10592 10591 10590 10588 10586 10584 10582 10579 10577 10575 10573
10335 10339 10344 10349 10356 10364 10371 10378 10384 10391 10397 10402 10407 10411 10415 10418 10421 10425 10429 10430 10433 10436 10440 10444 10449 10452 10456 10463 10466 10466 10469 10476 10480 10480 10482 10487 10492 10499 10504 10508 10510 10516 10522 10524 10524 10524 10527 10531 10536 10542 10548 10551 10551 10552 10554 10556 10559 10562 10561 10562 10567 10570 10570 10572 10577 10583 10583 10580 10579 10580 10580 10577 10577 10579 10581 10580 10579 10579 10578 10577 10575 10572 10569 10567 10566 10565 10564
10328 10333 10339 10347 10354 10361 10368 10374 10381 10386 10391 10395 10399 10403 10406 10408 10410 10413 10417 10421 10426 10431 10435 10439 10442 10444 10446 10451 10454 10453 10454 10459 10465 10469 10471 10474 10479 10487 10494 10496 10500 10506 10510 10509 10507 10510 10516 10520 10522 10525 10528 10529 10532 10537 10542 10544 10547 10548 10548 10551 10556 10559 10558 10560 10565 10569 10569 10567 10566 10566 10565 10565 10566 10569 10570 10569 10568 10567 10566 10565 10563 10560 10557 10556 10557 10556 10554
10325 10331 10338 10345 10351 10357 10364 10369 10375 10380 10384 10388 10392 10394 10395 10397 10401 10406 10412 10418 10423 10427 10428 10428 10430 10432 10434 10437 10440 10442 10444 10448 10454 10459 10463 10466 10470 10477 10482 10485 10489 10493 10494 10493 10493 10498 10502 10505 10507 10508 10510 10513 10519 10524 10527 10530 10533 10536 10536 10539 10543 10546 10546 10547 10550 10553 10554 10554 10554 10554 10554 10555 10556 10557 10557 10557 10557 10556 10555 10553 10550 10548 10547 10547 10546 10544 10542
10323 10329 10335 10341 10346 10352 10358 10363 10369 10374 10378 10380 10382 10384 10387 10392 10399 10405 10410 10413 10414 10414 10415 10416 10418 10420 10424 10429 10433 10436 10438 10441 10445 10449 10454 10458 10461 10465 10470 10472 10474 10476 10478 10479 10482 10485 10487 10490 10493 10495 10497 10500 10505 10509 10513 10517 10520 10522 10524 10526 10529 10532 10533 10533 10535 10537 10539 10540 10541 10543 10544 10545 10545 10545 10546 10546 10546 10544 10543 10541 10539 10539 10539 10538 10535 10532 10531
10319 10325 10331 10336 10341 10348 10354 10359 10364 10367 10370 10372 10376 10381 10386 10392 10396 10399 10400 10401 10401 10401 10404 10408 10411 10415 10420 10425 10428 10429 10430 10433 10436 10439 10442 10446 10449 10453 10456 10458 10460 10463 10466 10469 10471 10473 10475 10478 10481 10484 10486 10490 10493 10498 10502 10505 10507 10509 10511 10513 10515 10517 10519 10520 10521 10523 10526 10528 10530 10531 10533 10534 10535 10536 10536 10535 10534 10532 10531 10530 10531 10531 10530 10528 10525 10524 10522
10316 10321 10327 10332 10337 10343 10349 10353 10356 10360 10364 10369 10375 10380 10383 10385 10386 10387 10389 10391 10392 10395 10399 10404 10408 10411 10414 10417 10419 10420 10422 10424 10427 10429 10432 10435 10438 10441 10444 10447 10450 10453 10456 10458 10460 10462 10465 10468 10471 10474 10478 10482 10484 10488 10493 10495 10495 10495 10496 10499 10502 10504 10506 10508 10510 10512 10514 10516 10518 10520 10521 10523 10524 10526 10525 10523 10522 10521 10521 10521 10521 10521 10520 10518 10517 10515 10513
10313 10318 10324 10329 10334 10339 10343 10347 10353 10359 10364 10368 10372 10374 10375 10376 10377 10379 10382 10385 10389 10392 10396 10399 10402 10405 10407 10408 10410 10412 10414 10416 10419 10421 10424 10426 10429 10432 10435 10438 10441 10444 10446 10448 10451 10454 10456 10459 10463 10467 10471 10474 10476 10479 10483 10487 10486 10482 10481 10486 10491 10494 10494 10496 10499 10501 10504 10506 10508 10509 10510 10511 10512 10513 10513 10513 10513 10513 10512 10511 10511 10511 10510 10509 10507 10506 10504
10310 10316 10320 10325 10329 10335 10341 10347 10353 10358 10361 10363 10364 10366 10367 10369 10371 10375 10379 10382 10385 10388 10391 10394 10397 10399 10400 10402 10403 10405 10407 10409 10412 10413 10415 10418 10421 10425 10428 10431 10433 10435 10438 10441 10444 10447 10449 10452 10456 10460 10463 10466 10468 10470 10473 10477 10476 10473 10473 10478 10483 10485 10485 10486 10488 10491 10494 10496 10497 10497 10499 10500 10501 10502 10503 10503 10504 10503 10502 10502 10502 10502 10500 10499 10498 10497 10495
10308 10312 10317 10322 10328 10335 10341 10346 10349 10352 10354 10355 10357 10359 10362 10366 10370 10373 10377 10379 10382 10385 10388 10390 10392 10393 10394 10396 10398 10400 10402 10404 10406 10407 10409 10412 10416 10419 10422 10424 10426 10429 10433 10436 10438 10441 10444 10447 10450 10453 10456 10459 10461 10463 10465 10466 10467 10467 10469 10472 10475 10476 10476 10478 10479 10482 10484 10485 10486 10487 10489 10491 10492 10493 10493 10494 10494 10494 10494 10494 10493 10492 10491 10489 10488 10487 10485
10305 10310 10315 10321 10328 10333 10337 10340 10343 10345 10347 10349 10353 10357 10361 10365 10368 10371 10374 10376 10379 10381 10384 10386 10387 10388 10390 10392 10394 10396 10398 10399 10401 10403 10405 10408 10411 10414 10417 10419 10422 10425 10429 10431 10434 10436 10440 10443 10444 10446 10448 10451 10453 10455 10457 10458 10460 10462 10464 10466 10467 10468 10470 10471 10473 10474 10476 10477 10478 10480 10481 10483 10484 10484 10484 10484 10485 10485 10485 10485 10485 10483 10482 10480 10479 10477 10474
10304 10310 10315 10320 10324 10327 10330 10334 10337 10340 10344 10348 10353 10357 10361 10364 10366 10369 10371 10373 10376 10378 10380 10382 10383 10385 10387 10389 10391 10393 10394 10396 10398 10400 10403 10405 10408 10412 10414 10417 10420 10423 10425 10428 10431 10433 10434 10437 10438 10440 10441 10444 10446 10449 10452 10454 10455 10457 10458 10460 10461 10463 10464 10465 10467 10468 10469 10470 10471 10473 10474 10475 10476 10476 10476 10476 10476 10477 10476 10476 10475 10474 10472 10471 10469 10467 10464
10304 10308 10312 10316 10320 10323 10327 10331 10335 10339 10344 10349 10353 10356 10359 10361 10364 10366 10369 10371 10373 10375 10377 10379 10381 10383 10385 10387 10388 10390 10392 10394 10397 10399 10401 10404 10407 10410 10413 10416 10418 10420 10422 10424 10426 10427 10429 10431 10433 10435 10437 10440 10443 10445 10448 10449 10451 10452 10454 10455 10456 10457 10459 10460 10461 10462 10463 10465 10466 10467 10468 10469 10470 10470 10469 10469 10469 10468 10468 10467 10466 10464 10463 10461 10459 10457 10455